www.pogodaiklimat.ru

Погода и климат >> Архив погоды >> Россия >> Якутия >> Батагай-Алыта


ПОГОДА в Батагай-Алыте

  • Прогноз погоды в Батагай-Алыте
  • Монитор погоды в Батагай-Алыте

АРХИВ ПОГОДЫ в Батагай-Алыте

Время (UTC), дата Ветер
(напр.,м/с)
 
Видим.   Явления Облачность Т
(С)
Тd
(С)
f
(%)
Тe
(С)
Тes
(С)
Комфортность P
(гПа)
Po
(гПа)
Тmin
(С)
Tmax
(С)
R
(мм)
R24
(мм)
S
(см)
09 14.04 Ю 3 50 км ясно -9.9 -21.0 40 -16 -15 1007.6 945.7 -9.2
12 14.04 СЗ 3 н/о н/о -26.5 -29.3 77 -35 -35 опасность
обморожения
1012.8 946.5
15 14.04 СЗ 1 н/о н/о -26.8 -28.6 85 -31 -31 опасность
обморожения
1012.7 946.3
18 14.04 З 1 н/о н/о -29.4 -30.9 87 -33 -33 опасность
обморожения
1013.4 946.3
21 14.04 ЮЗ 1 н/о н/о -26.7 -28.6 84 -30 -30 1012.0 945.7 -30.0
00 15.04 З 1 50 км 8/3 1500 м
[Cb cap Ci fib]
-16.3 -21.7 63 -19 -16 1008.7 945.2 -30.0 22
03 15.04 В 1 50 км 6/0
[Ci fib]
-9.6 -18.6 48 -12 -5 1006.0 944.2
06 15.04 СЗ 1 50 км 6/0
[Ci fib]
-8.8 -17.8 48 -11 -6 1005.0 943.5
09 15.04 С 1 50 км 4/0
[Ci fib]
-0.7 -18.1 25 -2 -1 1005.0 943.9 -3.7
12 15.04 З 2 н/о н/о -17.3 -21.2 72 -23 -23 1008.2 944.5
15 15.04 СЗ 2 н/о н/о -22.3 -24.2 84 -29 -29 1009.7 944.7
18 15.04 СЗ 1 н/о н/о -26.9 -28.3 88 -31 -31 опасность
обморожения
1011.5 945.2
21 15.04 СЗ 2 н/о н/о -26.4 -28.1 85 -33 -33 опасность
обморожения
1011.7 945.5 -29.4
00 16.04 СЗ 2 50 км ясно -15.9 -20.8 66 -21 -17 1008.8 945.4 -29.4 22
03 16.04 В 2 50 км ясно -9.2 -17.3 52 -13 -7 1006.5 944.8
06 16.04 Ю 3 50 км 4/0
[Ci fib]
-5.2 -17.2 38 -10 -6 1005.3 944.5
09 16.04 Ю 3 50 км 4/0
[]
-5.5 -17.9 37 -10 -10 1006.2 945.3 -5.2
12 16.04 СЗ 2 н/о н/о -16.2 -20.9 67 -21 -21 1010.3 946.8
15 16.04 СЗ 3 н/о н/о -14.7 -18.9 70 -21 -21 1010.6 947.4
18 16.04 З 4 н/о н/о -19.1 -20.6 88 -28 -28 1012.7 948.3
21 16.04 СЗ 3 н/о н/о -20.3 -22.4 83 -28 -28 1014.1 949.3 -21.7
00 17.04 С 1 50 км ясно -13.1 -18.4 64 -15 -11 1012.5 949.5 -21.7 20
03 17.04 С 4 50 км ясно -10.4 -16.9 59 -17 -13 1011.4 949.2
06 17.04 СВ 5 50 км ясно -9.9 -16.2 60 -18 -15 1011.0 948.9
09 17.04 СВ 5
{10}
50 км ясно -11.6 -16.8 65 -20 -19 1012.1 949.5 -8.9
12 17.04 З 3 н/о н/о -15.5 -18.9 75 -22 -22 1014.8 951.1
15 17.04 СЗ 4 н/о н/о -17.1 -20.2 77 -25 -25 1015.8 951.7
18 17.04 З 3 н/о н/о -25.9 -27.0 90 -35 -35 опасность
обморожения
1018.5 952.0
21 17.04 З 1 н/о н/о -25.5 -27.3 85 -29 -29 1019.5 953.0 -25.9
00 18.04 В 1 50 км 4/0
[Ci fib]
-17.6 -22.1 68 -20 -16 1017.7 953.3 -26.3 20
03 18.04 В 1 50 км 4/0
[Ci fib]
-17.6 -22.1 68 -20 -13 1017.7 953.3 -26.3
06 18.04 В 2 50 км 3/0
[Ci fib]
-7.9 -16.8 49 -12 -7 1016.0 954.0
09 18.04 ЮВ 2 50 км ясно -8.1 -17.5 47 -12 -11 1017.1 955.0 -5.5
12 18.04 З 1 н/о н/о -22.5 -25.0 80 -26 -26 1021.9 956.0
15 18.04 З 2 н/о н/о -24.7 -26.3 86 -31 -31 опасность
обморожения
1023.5 957.0
18 18.04 З 3 н/о н/о -26.2 -27.8 86 -35 -35 опасность
обморожения
1024.5 957.5
21 18.04 штиль 0 н/о н/о -25.1 -27.6 80 -25 -25 1024.7 958.0 -27.7
00 19.04 З 2 50 км ясно -14.8 -21.6 56 -20 -15 1021.9 957.9 -27.7 20
03 19.04 В 2 50 км ясно -8.4 -17.4 48 -12 -5 1019.5 957.2
06 19.04 Ю 4 50 км ясно -5.4 -15.5 45 -11 -8 1017.3 955.8
09 19.04 ЮЗ 2 50 км ясно -4.9 -15.3 44 -8 -7 1017.1 955.7 -3.9
12 19.04 СЗ 2 н/о н/о -19.9 -22.4 80 -26 -26 1020.5 955.4
15 19.04 З 1 н/о н/о -22.8 -24.5 86 -26 -26 1021.8 955.8
18 19.04 СЗ 1 н/о н/о -25.5 -27.2 86 -29 -29 1022.8 956.1
21 19.04 СЗ 2 н/о н/о -23.2 -25.0 85 -30 -30 1022.4 956.3 -27.6
00 20.04 З 2 50 км 3/0
[Ci fib]
-13.9 -19.6 62 -19 -15 1020.1 956.4 -27.6 19
03 20.04 В 1 50 км 5/0
[Ac trans]
-6.8 -16.0 48 -9 -3 1017.2 955.4
06 20.04 В 3 50 км 8/0
[Ac trans Ci fib]
-5.2 -13.8 51 -10 -7 1015.8 954.4
09 20.04 ЮВ 1 50 км 10/0
[Ac und]
-4.8 -15.2 44 -6 -6 1015.3 954.2 -4.0
12 20.04 ЮЗ 2 н/о н/о -9.2 -14.0 68 -14 -14 1015.6 953.4
15 20.04 С 1 н/о н/о -12.6 -15.1 82 -15 -15 1014.5 951.5
18 20.04 СЗ 3 н/о н/о -13.8 -16.4 81 -20 -20 1013.3 950.1
21 20.04 ЮЗ 1 н/о н/о -14.0 -16.6 81 -16 -16 1012.5 949.3 -18.8
00 21.04 З 1 50 км 6/0
[Ci fib]
-8.7 -15.1 60 -11 -6 1009.7 947.9 -18.8 19
03 21.04 В 1 50 км 4/0
[Ci fib]
-4.3 -12.9 51 -6 +2 1006.9 946.3
06 21.04 В 1 50 км 3/0
[Ci fib]
-3.5 -13.1 47 -5 +1 1006.0 945.5

 

Местоположение метеостанции Батагай-Алыта (Якутия, Россия): широта 67.78 долгота 130.40 высота над уровнем моря 491 м.

В архиве по умолчанию представлена погода в Батагай-Алыте за последнюю неделю. Архивные данные за месяц целиком и за предыдущие месяцы, начиная с января 2011 года, Вы можете получить, выбрав интересующий диапазон дат из раскрывающегося списка и нажав кнопку "Ввод!".


*Определитесь, кто Вы:
робот инопланетянин человек

Внимание! Время в таблицах - всемирное. Для получения местного времени необходимо прибавить поправку, которая равна 9 ч.

Смотрите также архив погоды в соседних городах и на ближайших метеорологических станциях:

Погода в Екюччю (Якутия, Россия) (124 км)
Погода в Верхоянске (Якутия, Россия) (129 км)
Погода в Батагае (Якутия, Россия) (178 км)
Погода в Себян-Кюеле (Якутия, Россия) (276 км)
Погода в Джарджане (Якутия, Россия) (284 км)
Погода в Усть-Чарках (Якутия, Россия) (288 км)
Погода в Усть-Куйге (Якутия, Россия) (323 км)
Погода в Жиганске (Якутия, Россия) (324 км)
Погода в Кюсюре (Якутия, Россия) (343 км)
Погода в Иэме (Якутия, Россия) (365 км)

Пояснения к столбцам:

Ветер - указаны скорость ветра в м/с - средняя за 10 мин, порывы в срок и между сроками (в фигурных скобках) и направление, откуда дует ветер: С - северный, СВ - северо-восточный, В - восточный, ЮВ - юго-восточный, Ю - южный, ЮЗ - юго-западный, З - западный, СЗ - северо-западный.
Видимость - горизонтальная дальность видимости в метрах или километрах. При видимости от 1 до 10 км при отсутствии осадков обычно наблюдается дымка, при ухудшении видимости до 1 км и менее - туман. В сухую погоду видимость может ухудшаться дымом, пылью или мглою.
Явления - указаны атмосферные явления, наблюдавшиеся в срок или в последний час перед сроком; фигурными скобками обозначены явления, наблюдавшиеся между сроками (за 1-3 часа до срока); квадратными скобками обозначены град или гололедные отложения с указанием их диаметра в мм.
Облачность - указаны через наклонную черту общая и нижняя облачность в баллах и высота нижней границы облаков в метрах; квадратными скобками обозначены формы облаков: Ci - перистые, Cs - перисто-слоистые, Cc - перисто-кучевые, Ac - высококучевые, As - высокослоистые, Sc - слоисто-кучевые, Ns - слоисто-дождевые, Cu - кучевые, Cb - кучево-дождевые. Подробнее классификацию облаков см. в Атласе облаков (PDF).
T - Температура воздуха - температура, измеренная на высоте 2 м над землей.
Td - Температура точки росы - температура, при понижении до которой содержащийся в воздухе водяной пар достигнет насыщения.
f - Относительная влажность воздуха - влажноcть воздуха, измеренная на высоте 2 м над землей.
Te - Эффективная температура - температура, которую ощущает одетый по сезону человек в тени. Характеристика душности погоды. При расчете учитывается влияние влажности воздуха и скорости ветра на теплоощущения человека.
Tes - Эффективная температура на солнце - температура, которую ощущает человек, с поправкой на солнечный нагрев. Характеристика знойности погоды. Зависит от высоты солнца над горизонтом, облачности и скорости ветра. Ночью, в пасмурную погоду, а также при ветре 12 м/с и более поправка равна нулю.
P - Атмосферное давление - приведенное к уровню моря атмосферное давление.
Po - Атмосферное давление - измеренное на уровне метеостанции атмосферное давление.
Tmin - Минимальная температура - минимум температуры воздуха на высоте 2 м над землей.
Tmax - Максимальная температура - максимум температуры воздуха на высоте 2 м над землей.
R - Количество осадков - Количество выпавших осадков за период времени, мм. При наведении курсора мыши на число - период времени, за который выпало указанное количество осадков.
R24 - Количество осадков - Количество выпавших осадков за 24 часа, мм.
S - Снежный покров - Высота снежного покрова, см. При наведении курсора мыши на число - состояние снежного покрова и степень покрытия местности в баллах.